ASA121 KLAS-KLAX

Flight info

Callsign ASA121
Flight time 0h 37m
Altitude 28000
Route RADYR2 BLAQQ SHTNR ANJLL4
Aircraft B38M/M-SDE1FGHILORVWXY/HB1

Departure

Time 2026-05-07 06:22
Airport Harry Reid International Airport (KLAS)

Arrival

Time 2026-05-07 06:59
Airport Los Angeles International Airport (KLAX)
Time Latitude Longitude Altitude Speed Heading
2026-05-07 06:05 36.08528 -115.14004 2083 ft 0 kts
2026-05-07 06:13 36.08527 -115.14004 2064 ft 2 kts
2026-05-07 06:13 36.08509 -115.14005 2083 ft 3 kts
2026-05-07 06:13 36.08491 -115.14005 2083 ft 3 kts
2026-05-07 06:13 36.08473 -115.14007 2084 ft 2 kts 17°
2026-05-07 06:14 36.08458 -115.14017 2085 ft 2 kts 45°
2026-05-07 06:14 36.08449 -115.14034 2086 ft 2 kts 72°
2026-05-07 06:14 36.08447 -115.14050 2086 ft 0 kts 92°
2026-05-07 06:15 36.08445 -115.14014 2085 ft 9 kts 93°
2026-05-07 06:16 36.08444 -115.13897 2083 ft 18 kts 90°
2026-05-07 06:16 36.08443 -115.13717 2080 ft 23 kts 90°
2026-05-07 06:16 36.08443 -115.13522 2076 ft 16 kts 95°
2026-05-07 06:16 36.08380 -115.13399 2075 ft 18 kts 137°
2026-05-07 06:17 36.08289 -115.13304 2073 ft 16 kts 156°
2026-05-07 06:17 36.08171 -115.13294 2074 ft 17 kts 180°
2026-05-07 06:17 36.08046 -115.13292 2074 ft 19 kts 179°
2026-05-07 06:17 36.07914 -115.13291 2078 ft 17 kts 181°
2026-05-07 06:18 36.07832 -115.13295 2079 ft 11 kts 182°
2026-05-07 06:18 36.07761 -115.13267 2077 ft 13 kts 120°
2026-05-07 06:18 36.07756 -115.13134 2069 ft 19 kts 95°
2026-05-07 06:18 36.07756 -115.12954 2061 ft 23 kts 88°
2026-05-07 06:19 36.07756 -115.12757 2051 ft 20 kts 91°
2026-05-07 06:19 36.07755 -115.12585 2043 ft 21 kts 90°
2026-05-07 06:19 36.07755 -115.12418 2039 ft 16 kts 89°
2026-05-07 06:19 36.07754 -115.12277 2034 ft 19 kts 90°
2026-05-07 06:20 36.07749 -115.12167 2030 ft 11 kts 113°
2026-05-07 06:20 36.07689 -115.12127 2036 ft 10 kts 178°
2026-05-07 06:20 36.07644 -115.12148 2033 ft 6 kts 234°
2026-05-07 06:20 36.07640 -115.12198 2040 ft 6 kts 274°
2026-05-07 06:21 36.07643 -115.12283 2035 ft 21 kts 270°
2026-05-07 06:21 36.07642 -115.12749 2053 ft 86 kts 270°
2026-05-07 06:21 36.07642 -115.13716 2096 ft 137 kts 270°
2026-05-07 06:21 36.07633 -115.15017 2350 ft 157 kts 269°
2026-05-07 06:22 36.07647 -115.16420 2799 ft 171 kts 270°
2026-05-07 06:22 36.07646 -115.19544 4018 ft 202 kts 270°
2026-05-07 06:22 36.07583 -115.21360 4586 ft 227 kts 263°
2026-05-07 06:23 36.07331 -115.23367 5396 ft 242 kts 261°
2026-05-07 06:23 36.06811 -115.25386 6333 ft 252 kts 238°
2026-05-07 06:23 36.05478 -115.26878 7032 ft 272 kts 208°
2026-05-07 06:23 36.03680 -115.27814 7742 ft 289 kts 199°
2026-05-07 06:24 36.01733 -115.28549 7843 ft 293 kts 196°
2026-05-07 06:24 35.99763 -115.29230 7935 ft 294 kts 196°
2026-05-07 06:24 35.97768 -115.29820 8546 ft 295 kts 191°
2026-05-07 06:24 35.95734 -115.30251 9625 ft 299 kts 188°
2026-05-07 06:25 35.93650 -115.30671 10487 ft 309 kts 189°
2026-05-07 06:25 35.91497 -115.31140 11302 ft 319 kts 190°
2026-05-07 06:25 35.89318 -115.31713 12132 ft 328 kts 193°
2026-05-07 06:25 35.87075 -115.32384 13051 ft 335 kts 192°
2026-05-07 06:26 35.84747 -115.32979 13782 ft 348 kts 191°
2026-05-07 06:26 35.82319 -115.33525 14435 ft 360 kts 190°
2026-05-07 06:26 35.80669 -115.33901 14915 ft 366 kts 190°
2026-05-07 06:26 35.78131 -115.34514 15609 ft 374 kts 191°
2026-05-07 06:27 35.75563 -115.35152 16436 ft 379 kts 190°
2026-05-07 06:27 35.72096 -115.36014 17483 ft 386 kts 190°
2026-05-07 06:27 35.69446 -115.36673 18258 ft 391 kts 190°
2026-05-07 06:27 35.67635 -115.37124 18724 ft 394 kts 190°
2026-05-07 06:28 35.64927 -115.37797 19389 ft 399 kts 190°
2026-05-07 06:28 35.62196 -115.38450 20050 ft 402 kts 186°
2026-05-07 06:28 35.59401 -115.38655 20708 ft 404 kts 176°
2026-05-07 06:28 35.56581 -115.38499 21352 ft 407 kts 174°
2026-05-07 06:29 35.53780 -115.38282 21983 ft 411 kts 174°
2026-05-07 06:29 35.50873 -115.38064 22625 ft 415 kts 174°
2026-05-07 06:29 35.48008 -115.37871 23239 ft 420 kts 177°
2026-05-07 06:29 35.45070 -115.38065 23818 ft 426 kts 187°
2026-05-07 06:30 35.42178 -115.38918 24343 ft 431 kts 199°
2026-05-07 06:30 35.39434 -115.40450 24854 ft 435 kts 208°
2026-05-07 06:30 35.36778 -115.42259 25356 ft 439 kts 208°
2026-05-07 06:30 35.34077 -115.44035 25861 ft 442 kts 207°
2026-05-07 06:31 35.31334 -115.45780 26362 ft 445 kts 207°
2026-05-07 06:31 35.28575 -115.47536 26861 ft 448 kts 207°
2026-05-07 06:31 35.25801 -115.49303 27348 ft 451 kts 207°
2026-05-07 06:31 35.23005 -115.51084 27827 ft 454 kts 207°
2026-05-07 06:32 35.20181 -115.52881 28086 ft 462 kts 207°
2026-05-07 06:32 35.17285 -115.54725 28066 ft 477 kts 207°
2026-05-07 06:32 35.14323 -115.56670 28066 ft 488 kts 211°
2026-05-07 06:32 35.11546 -115.59097 28057 ft 495 kts 220°
2026-05-07 06:33 35.06755 -115.65074 28060 ft 496 kts 227°
2026-05-07 06:33 35.01999 -115.71183 28047 ft 496 kts 226°
2026-05-07 06:34 34.97217 -115.77274 28042 ft 496 kts 227°
2026-05-07 06:34 34.92439 -115.83355 28034 ft 496 kts 227°
2026-05-07 06:35 34.87682 -115.89400 28032 ft 497 kts 227°
2026-05-07 06:35 34.82886 -115.95484 28020 ft 497 kts 227°
2026-05-07 06:36 34.78089 -116.01562 28017 ft 498 kts 227°
2026-05-07 06:36 34.73304 -116.07668 28020 ft 498 kts 227°
2026-05-07 06:37 34.68546 -116.13722 28019 ft 498 kts 227°
2026-05-07 06:37 34.63748 -116.19817 28030 ft 499 kts 227°
2026-05-07 06:38 34.58947 -116.25906 28047 ft 499 kts 227°
2026-05-07 06:38 34.54134 -116.31997 28055 ft 499 kts 227°
2026-05-07 06:39 34.49348 -116.38045 28057 ft 499 kts 227°
2026-05-07 06:39 34.44531 -116.44121 28064 ft 500 kts 227°
2026-05-07 06:40 34.42296 -116.47224 28063 ft 478 kts 235°
2026-05-07 06:40 34.40546 -116.50545 28061 ft 460 kts 244°
2026-05-07 06:40 34.37685 -116.57415 28031 ft 455 kts 246°
2026-05-07 06:41 34.34865 -116.64271 28029 ft 454 kts 246°
2026-05-07 06:41 34.33477 -116.67658 27947 ft 442 kts 246°
2026-05-07 06:41 34.32152 -116.70969 27721 ft 432 kts 246°
2026-05-07 06:42 34.30867 -116.74170 27486 ft 423 kts 246°
2026-05-07 06:42 34.29578 -116.77368 27219 ft 429 kts 246°
2026-05-07 06:42 34.28242 -116.80683 26709 ft 435 kts 246°
2026-05-07 06:42 34.26926 -116.83941 26234 ft 438 kts 246°
2026-05-07 06:43 34.25586 -116.87253 25747 ft 437 kts 246°
2026-05-07 06:43 34.24253 -116.90547 25229 ft 434 kts 246°
2026-05-07 06:43 34.22929 -116.93817 24714 ft 433 kts 246°
2026-05-07 06:43 34.21609 -116.97090 24181 ft 432 kts 248°
2026-05-07 06:44 34.20521 -117.00471 23470 ft 433 kts 254°
2026-05-07 06:44 34.19576 -117.03941 22718 ft 434 kts 255°
2026-05-07 06:44 34.18656 -117.07396 22107 ft 431 kts 255°
2026-05-07 06:44 34.17727 -117.10837 21541 ft 428 kts 254°
2026-05-07 06:45 34.16811 -117.14203 20921 ft 427 kts 254°
2026-05-07 06:45 34.15872 -117.17624 20172 ft 430 kts 253°
2026-05-07 06:45 34.14929 -117.21055 19516 ft 430 kts 253°
2026-05-07 06:45 34.13990 -117.24476 18938 ft 428 kts 253°
2026-05-07 06:46 34.13050 -117.27888 18284 ft 428 kts 253°
2026-05-07 06:46 34.12108 -117.31306 17556 ft 428 kts 253°
2026-05-07 06:46 34.11172 -117.34703 16901 ft 426 kts 253°
2026-05-07 06:46 34.10287 -117.38055 16136 ft 423 kts 254°
2026-05-07 06:47 34.09450 -117.41423 15451 ft 413 kts 254°
2026-05-07 06:47 34.08627 -117.44692 14880 ft 402 kts 254°
2026-05-07 06:47 34.07814 -117.47883 14304 ft 392 kts 253°
2026-05-07 06:47 34.07023 -117.50990 13753 ft 383 kts 253°
2026-05-07 06:48 34.06254 -117.54010 13309 ft 370 kts 253°
2026-05-07 06:48 34.05510 -117.56927 12934 ft 357 kts 253°
2026-05-07 06:48 34.04789 -117.59747 12536 ft 348 kts 253°
2026-05-07 06:48 34.04074 -117.62548 12119 ft 348 kts 253°
2026-05-07 06:49 34.03371 -117.65294 11707 ft 347 kts 253°
2026-05-07 06:49 34.02657 -117.68083 11297 ft 346 kts 253°
2026-05-07 06:49 34.02050 -117.70890 10860 ft 345 kts 262°
2026-05-07 06:49 34.01783 -117.73757 10410 ft 339 kts 266°
2026-05-07 06:50 34.01546 -117.76531 10033 ft 327 kts 265°
2026-05-07 06:50 34.01292 -117.79222 9555 ft 318 kts 265°
2026-05-07 06:50 34.01039 -117.81830 9166 ft 308 kts 265°
2026-05-07 06:50 34.00794 -117.84344 8807 ft 297 kts 265°
2026-05-07 06:51 34.00556 -117.86779 8409 ft 289 kts 265°
2026-05-07 06:51 34.00324 -117.89151 8080 ft 283 kts 264°
2026-05-07 06:51 34.00093 -117.91503 7755 ft 281 kts 265°
2026-05-07 06:51 33.99865 -117.93833 7376 ft 278 kts 264°
2026-05-07 06:52 33.99642 -117.96112 7060 ft 269 kts 265°
2026-05-07 06:52 33.99426 -117.98307 6757 ft 260 kts 264°
2026-05-07 06:52 33.99217 -118.00411 6433 ft 252 kts 264°
2026-05-07 06:52 33.99011 -118.02484 6104 ft 245 kts 264°
2026-05-07 06:53 33.98811 -118.04489 5810 ft 237 kts 264°
2026-05-07 06:53 33.98618 -118.06428 5517 ft 230 kts 264°
2026-05-07 06:53 33.98430 -118.08317 5213 ft 224 kts 264°
2026-05-07 06:53 33.98247 -118.10156 4966 ft 219 kts 265°
2026-05-07 06:54 33.98065 -118.11965 4726 ft 217 kts 265°
2026-05-07 06:54 33.97884 -118.13783 4390 ft 220 kts 264°
2026-05-07 06:54 33.97702 -118.15597 4068 ft 214 kts 264°
2026-05-07 06:54 33.97533 -118.17328 3837 ft 199 kts 264°
2026-05-07 06:55 33.97370 -118.18946 3508 ft 191 kts 263°
2026-05-07 06:55 33.97211 -118.20512 3171 ft 184 kts 263°
2026-05-07 06:55 33.97064 -118.21982 2965 ft 173 kts 263°
2026-05-07 06:55 33.96921 -118.23420 2796 ft 173 kts 263°
2026-05-07 06:56 33.96778 -118.24834 2606 ft 171 kts 263°
2026-05-07 06:56 33.96633 -118.26240 2393 ft 168 kts 263°
2026-05-07 06:56 33.96490 -118.27636 2198 ft 162 kts 263°
2026-05-07 06:56 33.96359 -118.28952 1991 ft 155 kts 263°
2026-05-07 06:57 33.96230 -118.30207 1794 ft 151 kts 263°
2026-05-07 06:57 33.96102 -118.31459 1591 ft 151 kts 263°
2026-05-07 06:57 33.95977 -118.32705 1391 ft 149 kts 263°
2026-05-07 06:57 33.95851 -118.33936 1197 ft 148 kts 263°
2026-05-07 06:58 33.95725 -118.35163 1003 ft 146 kts 262°
2026-05-07 06:58 33.95600 -118.36361 790 ft 143 kts 263°
2026-05-07 06:58 33.95480 -118.37550 599 ft 143 kts 263°
2026-05-07 06:58 33.95361 -118.38731 408 ft 142 kts 263°
2026-05-07 06:59 33.95239 -118.39908 220 ft 141 kts 263°
2026-05-07 06:59 33.95122 -118.41051 129 ft 128 kts 263°
2026-05-07 06:59 33.95038 -118.41877 126 ft 72 kts 263°
2026-05-07 06:59 33.94991 -118.42340 128 ft 29 kts 263°
2026-05-07 07:00 33.94920 -118.42576 128 ft 28 kts 238°
2026-05-07 07:00 33.94861 -118.42668 128 ft 0 kts 226°
2026-05-07 07:00 33.94850 -118.42683 127 ft 7 kts 226°
2026-05-07 07:01 33.94771 -118.42753 128 ft 20 kts 206°
2026-05-07 07:01 33.94657 -118.42780 126 ft 13 kts 180°
2026-05-07 07:01 33.94555 -118.42766 126 ft 16 kts 172°
2026-05-07 07:01 33.94424 -118.42747 127 ft 21 kts 173°
2026-05-07 07:02 33.94268 -118.42723 127 ft 24 kts 173°
2026-05-07 07:02 33.94092 -118.42697 126 ft 27 kts 172°
2026-05-07 07:02 33.93897 -118.42668 123 ft 30 kts 173°
2026-05-07 07:02 33.93724 -118.42642 125 ft 19 kts 172°
2026-05-07 07:03 33.93634 -118.42621 127 ft 11 kts 148°
2026-05-07 07:03 33.93617 -118.42543 128 ft 10 kts 82°
2026-05-07 07:03 33.93629 -118.42443 128 ft 15 kts 82°
2026-05-07 07:03 33.93643 -118.42291 128 ft 21 kts 84°
2026-05-07 07:04 33.93665 -118.42091 126 ft 26 kts 83°
2026-05-07 07:04 33.93686 -118.41876 128 ft 25 kts 83°
2026-05-07 07:04 33.93707 -118.41675 128 ft 23 kts 83°
2026-05-07 07:04 33.93726 -118.41489 125 ft 22 kts 83°
2026-05-07 07:05 33.93744 -118.41317 128 ft 20 kts 83°
2026-05-07 07:05 33.93760 -118.41159 128 ft 18 kts 83°
2026-05-07 07:05 33.93777 -118.40990 128 ft 23 kts 83°
2026-05-07 07:05 33.93799 -118.40779 126 ft 28 kts 83°
2026-05-07 07:06 33.93823 -118.40540 125 ft 29 kts 83°
2026-05-07 07:06 33.93844 -118.40338 128 ft 14 kts 83°
2026-05-07 07:06 33.93871 -118.40290 128 ft 5 kts
2026-05-07 07:06 33.93912 -118.40293 126 ft 8 kts 353°
2026-05-07 07:07 33.93963 -118.40273 124 ft 8 kts 34°
2026-05-07 07:07 33.93991 -118.40247 127 ft 3 kts 39°
2026-05-07 07:07 33.93992 -118.40246 127 ft 0 kts 39°